K5KVN-2 Weather Reports


Display with metric or nautical units.
time (UTC)temp
F
wind
direction
speed
MPH
gust
MPH
rain 1hr
in
rain 24hr
in
rain mn
in
humidity
%
barometer
mb
20260509143233 64 169 2.0 5.0 0.00 0.10 0.00 89 1012.4
20260509142232 63 201 1.0 2.0 0.00 0.10 0.00 91 1012.2
20260509141233 62 155 0.0 3.0 0.00 0.10 0.00 93 1012.2
20260509140231 60 138 1.0 4.0 0.00 0.10 0.00 94 1012.2
20260509135720 59 189 1.0 3.0 0.00 0.10 0.00 94 1012.1
20260509134231 58 192 0.0 1.0 0.00 0.10 0.00 95 1012.0
20260509133233 57 144 0.0 0.0 0.00 0.10 0.00 95 1012.0
20260509132236 57 144 0.0 0.0 0.00 0.10 0.00 95 1011.9
20260509131230 56 155 0.0 0.0 0.00 0.10 0.00 95 1011.7
20260509130727 55 155 0.0 0.0 0.00 0.10 0.00 95 1011.7
20260509125722 55 178 0.0 0.0 0.00 0.10 0.00 95 1011.6
20260509124230 54 135 0.0 0.0 0.00 0.10 0.00 95 1011.7
20260509123709 54 135 0.0 0.0 0.00 0.10 0.00 95 1011.7
20260509122232 53 84 0.0 0.0 0.00 0.10 0.00 95 1011.6
20260509121231 53 84 0.0 0.0 0.00 0.10 0.00 95 1011.4
20260509120228 53 84 0.0 0.0 0.00 0.10 0.00 95 1011.3
20260509115227 53 84 0.0 0.0 0.00 0.10 0.00 95 1011.2
20260509114222 52 84 0.0 0.0 0.00 0.10 0.00 95 1011.3
20260509113220 52 84 0.0 0.0 0.00 0.10 0.00 95 1011.1
20260509112655 52 84 0.0 0.0 0.00 0.10 0.00 95 1011.1
20260509111217 52 84 0.0 0.0 0.00 0.10 0.00 95 1010.9
20260509110218 52 129 0.0 0.0 0.00 0.10 0.00 95 1010.8
20260509105217 52 129 0.0 0.0 0.00 0.10 0.00 95 1010.7
20260509104216 52 129 0.0 0.0 0.00 0.10 0.00 95 1010.7
20260509103216 52 129 0.0 0.0 0.00 0.10 0.00 95 1010.5
20260509102217 52 140 0.0 0.0 0.00 0.10 0.00 95 1010.6
20260509101210 52 277 0.0 0.0 0.00 0.10 0.00 94 1010.6
20260509100212 53 209 0.0 2.0 0.00 0.10 0.00 94 1010.6
20260509095211 53 5 0.0 1.0 0.00 0.10 0.00 95 1010.6
20260509094210 53 5 0.0 2.0 0.00 0.10 0.00 95 1010.7
20260509093210 53 5 0.0 2.0 0.00 0.10 0.00 95 1010.7
20260509092210 53 296 0.0 0.0 0.00 0.10 0.00 94 1010.8
20260509091211 53 296 0.0 0.0 0.00 0.10 0.00 94 1010.8
20260509090210 53 296 0.0 0.0 0.00 0.10 0.00 95 1010.9
20260509085645 52 296 0.0 0.0 0.00 0.10 0.00 94 1010.9
20260509084206 53 296 0.0 0.0 0.00 0.10 0.00 94 1010.9
20260509083206 53 296 0.0 0.0 0.00 0.10 0.00 94 1011.1
20260509082204 52 296 0.0 0.0 0.00 0.10 0.00 94 1011.1
20260509081204 53 252 0.0 0.0 0.00 0.10 0.00 94 1011.2
20260509080206 53 252 0.0 0.0 0.00 0.10 0.00 93 1011.2
20260509075205 53 252 0.0 0.0 0.00 0.10 0.00 93 1011.3
20260509074648 54 252 0.0 1.0 0.00 0.10 0.00 93 1011.3
20260509073204 54 293 0.0 1.0 0.00 0.10 0.00 94 1011.3
20260509072204 54 293 0.0 2.0 0.00 0.10 0.00 93 1011.4
20260509071205 54 263 0.0 1.0 0.00 0.10 0.00 93 1011.3
20260509070204 54 263 0.0 0.0 0.00 0.10 0.00 93 1011.1
20260509064201 55 263 0.0 0.0 0.00 0.10 0.00 92 1011.3
20260509063650 55 320 0.0 1.0 0.00 0.10 0.00 93 1011.3
20260509062202 55 320 0.0 2.0 0.00 0.10 0.00 91 1011.4
20260509061202 55 289 0.0 0.0 0.00 0.10 0.00 92 1011.3
20260509060203 55 289 0.0 0.0 0.00 0.10 0.00 92 1011.3
20260509055201 56 289 0.0 1.0 0.00 0.10 0.00 91 1011.5
20260509054201 56 309 0.0 2.0 0.00 0.10 0.00 90 1011.6
20260509053200 57 309 1.0 3.0 0.00 0.10 0.00 90 1011.6
20260509052200 57 335 3.0 5.0 0.00 0.10 0.00 90 1011.5
20260509051632 57 311 3.0 7.0 0.00 0.10 0.00 90 1011.5
20260509050644 57 327 4.0 7.0 0.00 0.10 0.00 90 1011.7
20260509045154 57 331 6.0 8.0 0.00 0.10 0.10 89 1011.5
20260509044153 58 321 3.0 6.0 0.00 0.10 0.10 87 1011.3
20260509043152 59 204 3.0 6.0 0.00 0.10 0.10 86 1010.9
20260509042153 58 217 2.0 5.0 0.00 0.10 0.10 88 1010.9
20260509041639 58 203 2.0 5.0 0.00 0.10 0.10 86 1010.8
20260509040639 59 261 2.0 4.0 0.00 0.10 0.10 85 1010.6
20260509035636 59 198 2.0 4.0 0.00 0.10 0.10 85 1010.6
20260509034150 60 223 3.0 5.0 0.00 0.10 0.10 83 1010.3
20260509033631 61 229 2.0 5.0 0.00 0.10 0.10 81 1010.0
20260509032146 61 219 4.0 8.0 0.00 0.10 0.10 81 1009.9
20260509031145 61 184 7.0 13.0 0.00 0.10 0.10 82 1009.7
20260509030629 62 169 9.0 16.0 0.00 0.10 0.10 82 1009.5
20260509025148 62 177 10.0 17.0 0.00 0.10 0.10 83 1009.4
20260509024147 62 173 10.0 16.0 0.03 0.10 0.10 83 1009.1
20260509023144 62 170 9.0 17.0 0.05 0.10 0.10 84 1009.1
20260509022144 63 163 13.0 22.0 0.08 0.10 0.10 83 1009.0
20260509021144 62 188 13.0 26.0 0.08 0.10 0.10 86 1008.6
20260509020145 62 179 16.0 26.0 0.09 0.10 0.10 82 1009.6
20260509015143 62 184 10.0 21.0 0.09 0.10 0.09 83 1009.5
20260509014146 63 205 2.0 6.0 0.07 0.07 0.07 87 1011.9
20260509013139 64 231 1.0 4.0 0.04 0.04 0.04 84 1011.9
20260509012625 64 267 2.0 4.0 0.02 0.02 0.02 80 1011.3
20260509011629 64 322 2.0 3.0 0.02 0.02 0.01 82 1010.7
20260509010140 66 300 2.0 3.0 0.01 0.01 0.01 77 1010.4
20260509005141 67 340 4.0 10.0 0.01 0.01 0.01 71 1010.4
20260509004142 69 325 5.0 8.0 0.00 0.00 0.00 67 1010.7
20260509002139 69 304 2.0 3.0 0.00 0.00 0.00 63 1009.7
20260509001139 70 301 1.0 3.0 0.00 0.00 0.00 64 1009.3
20260509000134 71 248 0.0 1.0 0.00 0.00 0.00 59 1009.0
20260508235131 72 162 0.0 1.0 0.00 0.00 0.00 60 1009.0
20260508234131 72 296 1.0 2.0 0.00 0.00 0.00 56 1009.2
20260508233614 73 284 1.0 6.0 0.00 0.00 0.00 53 1009.1
20260508232128 74 274 3.0 7.0 0.00 0.00 0.00 51 1009.2
20260508231126 75 301 2.0 6.0 0.00 0.00 0.00 49 1008.9
20260508230125 75 225 2.0 7.0 0.00 0.00 0.00 48 1008.8
20260508225124 75 209 3.0 10.0 0.00 0.00 0.00 48 1009.0
20260508224610 75 207 5.0 10.0 0.00 0.00 0.00 49 1008.9
20260508223119 75 180 5.0 10.0 0.00 0.00 0.00 48 1008.7
20260508222121 76 230 6.0 11.0 0.00 0.00 0.00 47 1008.7
20260508221117 76 194 8.0 14.0 0.00 0.00 0.00 48 1008.9
20260508220117 76 211 6.0 12.0 0.00 0.00 0.00 48 1008.9
20260508215115 76 205 5.0 10.0 0.00 0.00 0.00 47 1009.0
20260508214116 76 192 7.0 13.0 0.00 0.00 0.00 50 1009.0
20260508213115 76 175 9.0 16.0 0.00 0.00 0.00 49 1009.2
20260508212115 76 205 7.0 15.0 0.00 0.00 0.00 51 1009.3
20260508211115 76 179 7.0 14.0 0.00 0.00 0.00 51 1009.2
20260508210110 76 190 8.0 17.0 0.00 0.00 0.00 51 1009.5
20260508205110 76 211 8.0 14.0 0.00 0.00 0.00 52 1009.5
20260508204109 76 155 8.0 15.0 0.00 0.00 0.00 50 1009.6
20260508203556 76 227 9.0 18.0 0.00 0.00 0.00 48 1009.6
20260508202107 76 194 9.0 19.0 0.00 0.00 0.00 49 1009.7
20260508201107 76 181 8.0 15.0 0.00 0.00 0.00 48 1009.7
20260508200108 75 157 8.0 17.0 0.00 0.00 0.00 48 1010.0
20260508195107 75 190 8.0 17.0 0.00 0.00 0.00 46 1010.5
20260508194109 76 235 7.0 16.0 0.00 0.00 0.00 47 1010.4
20260508193109 75 161 8.0 17.0 0.00 0.00 0.00 44 1010.5
20260508192108 75 172 8.0 14.0 0.00 0.00 0.00 48 1010.5
20260508191109 74 185 8.0 16.0 0.00 0.00 0.00 50 1010.7
20260508190109 75 189 9.0 15.0 0.00 0.00 0.00 46 1010.9
20260508185543 74 190 8.0 19.0 0.00 0.00 0.00 52 1010.8
20260508183105 74 198 7.0 14.0 0.00 0.00 0.00 49 1011.1
20260508182107 74 196 9.0 16.0 0.00 0.00 0.00 51 1011.4
20260508181549 73 166 7.0 13.0 0.00 0.00 0.00 51 1011.5
20260508180537 73 200 5.0 11.0 0.00 0.00 0.00 48 1011.8
20260508175103 72 176 8.0 14.0 0.00 0.00 0.00 52 1012.0
20260508174103 72 235 8.0 16.0 0.00 0.00 0.00 49 1012.1
20260508173552 72 174 7.0 17.0 0.00 0.00 0.00 51 1012.4
20260508172542 71 164 7.0 12.0 0.00 0.00 0.00 50 1012.5
20260508171103 71 186 6.0 16.0 0.00 0.00 0.00 50 1012.8
20260508165103 71 189 7.0 16.0 0.00 0.00 0.00 51 1013.4
20260508164103 71 186 9.0 18.0 0.00 0.00 0.00 49 1013.6
20260508163103 71 180 9.0 18.0 0.00 0.00 0.00 51 1013.4
20260508162103 70 202 8.0 15.0 0.00 0.00 0.00 54 1013.6
20260508161102 70 175 8.0 15.0 0.00 0.00 0.00 56 1013.8
20260508155059 69 189 9.0 16.0 0.00 0.00 0.00 56 1014.2
20260508154101 68 169 11.0 16.0 0.00 0.00 0.00 59 1014.2
20260508153056 67 193 10.0 21.0 0.00 0.00 0.00 60 1014.3
20260508152054 67 213 7.0 15.0 0.00 0.00 0.00 62 1014.6
20260508151058 66 161 8.0 15.0 0.00 0.00 0.00 66 1014.6
20260508150544 66 179 8.0 14.0 0.00 0.00 0.00 67 1014.7
20260508145054 65 234 10.0 18.0 0.00 0.00 0.00 70 1014.8
20260508144050 64 175 8.0 16.0 0.00 0.00 0.00 68 1014.8